Location: Alladorf
(49.9620°N, 11.3790°E)
Time: 19:54:36
(UTC+00:00)

COSMO-SKYMED 1 - Pass Details

Date: 29 November 2020
Orbit: 621 x 623 km, 97.9° (Epoch: 25 January)

Event Time Altitude Azimuth Distance (km) Brightness Sun altitude
Rises 05:00:46 0° 189° (S) 2,891 6.1 -16.7°
Reaches altitude 10° 05:03:06 10° 198° (SSW) 1,990 5.1 -16.3°
Maximum altitude 05:07:03 34° 264° (W) 1,040 3.2 -15.7°
Enters shadow 05:08:46 25° 306° (NW) 1,278 3.6 -15.4°
